[[{"header":{"parameterUnit":"m.s-1","parameterCategory":1,"la1":30.2992,"la2":30.254,"lo1":-89.0895,"lo2":-89.0443,"dy":0.0025,"dx":0.0025,"nx":19,"ny":19,"refTime":"2026-04-11T09:00:00:Z","depth":0,"parameterNumber":2,"parameterNumberName":"U-component_of_WINDS"},"data":[0,0,0,-2.7122,-2.7124,-2.7174,-2.7174,-2.7257,-2.7257,0,0,0,0,0,0,0,0,0,0,0,-2.7115,-2.7116,-2.7122,-2.7124,-2.7174,-2.7174,-2.7256,-2.7257,0,0,0,0,0,0,0,0,0,0,0,-2.7115,-2.7116,-2.7117,-2.7124,-2.7174,-2.7174,-2.7256,-2.7212,0,0,0,0,0,0,0,0,0,0,-2.7161,-2.7161,-2.7116,-2.7117,-2.7124,-2.7174,-2.7174,-2.721,-2.7215,-2.724,0,-2.7263,0,-2.7262,-2.7264,-2.7264,0,0,0,-2.7118,-2.7157,-2.7163,-2.7117,-2.7125,-2.7174,-2.715,-2.7213,-2.7219,-2.7247,-2.7264,-2.7267,-2.7263,-2.7264,-2.7265,-2.7426,-2.7427,0,0,-2.7115,-2.7129,-2.7159,-2.7167,-2.7158,-2.7148,-2.7152,-2.7216,-2.7236,-2.7264,-2.7268,-2.7264,-2.7265,-2.7266,-2.7425,-2.7427,0,0,0,-2.7111,-2.7127,-2.7132,-2.7164,-2.7172,-2.715,-2.7154,-2.7233,-2.7233,-2.7269,-2.7265,-2.7266,-2.7267,-2.7424,-2.7426,-2.7489,0,0,0,-2.7109,-2.7125,-2.7131,-2.714,-2.7171,-2.7203,-2.7169,-2.7229,-2.7235,-2.7265,-2.7266,-2.7268,-2.7423,-2.7425,-2.7484,-2.7516,0,0,0,-2.7109,-2.7125,-2.7135,-2.714,-2.7163,-2.7201,-2.7205,-2.723,-2.7234,-2.7264,-2.7268,-2.7422,-2.7425,-2.7481,-2.7509,-2.7562,0,0,0,-2.7114,-2.7189,-2.7136,-2.722,-2.7162,-2.724,-2.7204,-2.7261,-2.7295,-2.7266,-2.7423,-2.7426,-2.7479,-2.7506,-2.7558,-2.7609,-2.7631,0,0,-2.7217,-2.7202,-2.7251,-2.7204,-2.7294,-2.7231,-2.7331,-2.735,-2.7341,-2.7399,-2.7403,-2.7486,-2.7509,-2.7562,-2.7753,-2.777,0,0,0,-2.7288,-2.7323,-2.7344,-2.7376,-2.7392,-2.741,-2.7412,-2.742,-2.7468,-2.7373,-2.7519,-2.7533,-2.7563,-2.7586,-2.7601,-2.7627,-2.7437,-2.7437,-2.7437,-2.7451,-2.7437,-2.7516,-2.7509,-2.7542,-2.7544,-2.757,-2.7582,-2.7556,-2.7592,-2.7608,-2.7726,-2.7754,-2.7765,-2.7792,-2.7635,-2.7635,-2.7635,-2.7635,-2.76,-2.7647,-2.7615,-2.768,-2.7666,-2.7722,-2.773,-2.7711,-2.7762,-2.7712,-2.7738,-2.7683,-2.7785,-2.7808,-2.764,-2.7639,-2.7639,-2.7638,-2.7638,-2.7705,-2.7725,-2.7733,-2.7781,-2.7821,-2.7812,-2.7864,-2.7849,-2.7836,-2.7862,-2.7878,-2.7877,-2.7874,-2.7871,-2.7872,-2.7872,-2.7872,-2.7873,-2.7873,-2.7809,-2.7817,-2.786,-2.7887,-2.7908,-2.7934,-2.7941,-2.7962,-2.7982,-2.7967,-2.7968,-2.794,-2.7798,-2.7762,-2.7879,-2.7878,-2.7877,-2.7877,-2.7876,-2.7963,-2.7927,-2.7994,-2.8016,-2.8047,-2.8089,-2.8071,-2.8116,-2.8132,-2.8159,-2.8128,-2.8025,-2.8009,-2.7997,-2.7967,-2.813,-2.813,-2.813,-2.813,-2.805,-2.8042,-2.8109,-2.8144,-2.8178,-2.8169,-2.825,-2.8259,-2.8262,-2.8272,-2.8247,-2.8207,-2.8195,-2.8186,-2.817,-2.8142,-2.8346,-2.8346,-2.8346,-2.8145,-2.8139,-2.8208,-2.821,-2.8236,-2.8259,-2.8335,-2.8379,-2.8376,-2.8355,-2.828,-2.827,-2.8205,-2.8185,-2.8159,-2.8134,-2.8082,0,0]},{"header":{"parameterUnit":"m.s-1","parameterCategory":1,"la1":30.2992,"la2":30.254,"lo1":-89.0895,"lo2":-89.0443,"dy":0.0025,"dx":0.0025,"nx":19,"ny":19,"refTime":"2026-04-11T09:00:00:Z","depth":0,"parameterNumber":3,"parameterNumberName":"V-component_of_WINDS"},"data":[0,0,0,3.6695,3.6695,3.6696,3.6696,3.6674,3.6673,0,0,0,0,0,0,0,0,0,0,0,3.6683,3.6683,3.6695,3.6695,3.6696,3.6696,3.6674,3.6673,0,0,0,0,0,0,0,0,0,0,0,3.6683,3.6683,3.6682,3.6695,3.6696,3.6696,3.6674,3.6681,0,0,0,0,0,0,0,0,0,0,3.6683,3.6661,3.6683,3.6682,3.6695,3.6696,3.6696,3.6681,3.668,3.6664,0,3.6649,0,3.6661,3.6671,3.667,0,0,0,3.6702,3.6662,3.6674,3.6682,3.6695,3.6696,3.6698,3.6681,3.668,3.6662,3.6649,3.6649,3.6661,3.667,3.667,3.6558,3.6557,0,0,3.6702,3.6676,3.6675,3.6673,3.6675,3.6698,3.6698,3.6681,3.6663,3.6649,3.6648,3.666,3.667,3.667,3.6559,3.6558,0,0,0,3.6697,3.6675,3.6688,3.6673,3.6675,3.6698,3.6698,3.6664,3.667,3.6648,3.666,3.667,3.6669,3.656,3.6559,3.6489,0,0,0,3.6698,3.6673,3.6688,3.6671,3.6675,3.667,3.668,3.6671,3.667,3.666,3.667,3.6669,3.6561,3.6559,3.6493,3.6459,0,0,0,3.6687,3.6672,3.6668,3.667,3.667,3.6671,3.6677,3.6672,3.6677,3.667,3.6669,3.6562,3.656,3.6497,3.6465,3.6421,0,0,0,3.6667,3.6605,3.6667,3.6602,3.667,3.663,3.6677,3.6648,3.6635,3.667,3.6561,3.6559,3.6498,3.6469,3.6425,3.6377,3.6356,0,0,3.6573,3.6592,3.6557,3.6612,3.6555,3.6632,3.6564,3.6574,3.6596,3.6569,3.6567,3.6492,3.6466,3.6422,3.6251,3.6234,0,0,0,3.6518,3.6491,3.6482,3.647,3.648,3.6485,3.651,3.6514,3.6493,3.6578,3.6467,3.6452,3.6427,3.6405,3.639,3.637,3.6549,3.6549,3.6549,3.6343,3.6379,3.6322,3.6357,3.6345,3.6374,3.6366,3.6377,3.6413,3.6387,3.6377,3.6269,3.6243,3.6232,3.621,3.6358,3.6358,3.6357,3.6357,3.6206,3.6173,3.6229,3.6193,3.623,3.6199,3.6225,3.6252,3.6227,3.6279,3.6259,3.6309,3.6213,3.6195,3.6352,3.6353,3.6354,3.6354,3.6355,3.6093,3.6083,3.6094,3.6082,3.6068,3.6107,3.6081,3.6116,3.6148,3.6129,3.6122,3.6123,3.6126,3.6124,3.6124,3.6123,3.6123,3.6123,3.6123,3.5969,3.5984,3.5959,3.5968,3.5966,3.5967,3.5998,3.5996,3.6002,3.6029,3.6029,3.6066,3.6199,3.6229,3.6117,3.6118,3.6118,3.6119,3.6119,3.5811,3.5854,3.5816,3.5814,3.5827,3.5811,3.5859,3.5852,3.5855,3.5841,3.5886,3.5979,3.5999,3.6011,3.6036,3.588,3.588,3.588,3.588,3.5713,3.5729,3.5699,3.5694,3.5694,3.5734,3.5687,3.5712,3.5742,3.5746,3.5775,3.5813,3.5824,3.5837,3.5853,3.5876,3.5684,3.5684,3.5683,3.5616,3.5635,3.5589,3.5624,3.5638,3.5648,3.5605,3.5595,3.5639,3.5676,3.5749,3.5758,3.5819,3.5838,3.5871,3.5895,3.5939,0,0]}]]